Weather History for Wrangell, AK

Change the Weather History Date:

Thursday, August 30, 2012

  Actual Average Record
Temperature  
Mean Temperature 55 °F -  
Max Temperature 64 °F 61 °F 73 °F (1974)
Min Temperature 46 °F 48 °F 37 °F (1960)
Degree Days  
Heating Degree Days 10    
Growing Degree Days 5 (Base 50)    
Moisture  
Dew Point 47 °F    
Average Humidity 83    
Maximum Humidity 94    
Minimum Humidity 56    
Precipitation  
Precipitation 0.00 in - - ()
Sea Level Pressure  
Sea Level Pressure 30.05 in    
Wind  
Wind Speed 3 mph (ESE)    
Max Wind Speed 7 mph    
Max Gust Speed -    
Visibility 7 miles    
Events      
Averages and records for this station are not official NWS values.
T = Trace of Precipitation, MM = Missing Value Source: NWS Daily Summary

Daily Weather History Graph

Daily Weather History Graph

Search for Another Location

Airport:

Trip Planner

Search our weather history database for the weather conditions in past years. The results will help you decide how hot, cold, wet, or windy it might be!

Date:

Astronomy

Aug. 30, 2012 Rise Set
Actual Time 5:50 AM AKDT 7:48 PM AKDT
Civil Twilight 5:09 AM AKDT 8:28 PM AKDT
Nautical Twilight 4:18 AM AKDT 9:18 PM AKDT
Astronomical Twilight 3:17 AM AKDT 10:18 PM AKDT
Moon 6:58 PM AKDT (8/30) 4:59 AM AKDT (8/30)
Length of Visible Light 15h 18m
Length of Day
13h 58m
Waxing Gibbous, 99% of the Moon is Illuminated
Aug 30
Waxing Gibbous
Aug 31
Full
Sep 8
Last Quarter
Sep 15
New
Sep 22
First Quarter

Hourly Weather History & Observations

Time (AKDT) Temp. Windchill Dew Point Humidity Pressure Visibility Wind Dir Wind Speed Gust Speed Precip Events Conditions
12:16 AM 50.0 °F - 46.4 °F 87% 30.02 in 10.0 mi North 3.5 mph - N/A   Clear
12:36 AM 48.2 °F - 46.4 °F 93% 30.03 in 10.0 mi Calm Calm - N/A   Clear
12:56 AM 48.2 °F - 46.4 °F 93% 30.03 in 10.0 mi Calm Calm - N/A   Clear
1:16 AM 46.4 °F 45.2 °F 44.6 °F 93% 30.03 in 10.0 mi SSW 3.5 mph - N/A   Clear
1:36 AM 48.2 °F - 44.6 °F 87% 30.03 in 10.0 mi Calm Calm - N/A   Clear
1:56 AM 48.2 °F - 44.6 °F 87% 30.03 in 10.0 mi West 3.5 mph - N/A   Clear
2:16 AM 46.4 °F - 44.6 °F 93% 30.03 in 10.0 mi Calm Calm - N/A   Clear
2:36 AM 46.4 °F - 44.6 °F 93% 30.04 in 10.0 mi Calm Calm - N/A   Clear
2:56 AM 48.2 °F - 44.6 °F 87% 30.03 in 10.0 mi Calm Calm - N/A   Partly Cloudy
3:16 AM 46.4 °F 45.2 °F 42.8 °F 87% 30.04 in 10.0 mi SE 3.5 mph - N/A   Partly Cloudy
3:36 AM 46.4 °F 44.3 °F 42.8 °F 87% 30.04 in 10.0 mi SE 4.6 mph - N/A   Clear
3:56 AM 46.4 °F 44.3 °F 44.6 °F 93% 30.04 in 10.0 mi SE 4.6 mph - N/A   Clear
4:16 AM 46.4 °F 45.2 °F 44.6 °F 93% 30.04 in 0.8 mi SE 3.5 mph - N/A   Overcast
4:36 AM 46.4 °F 44.3 °F 44.6 °F 93% 30.04 in 0.2 mi SE 4.6 mph - N/A   Overcast
4:56 AM 48.2 °F - 44.6 °F 87% 30.04 in 0.2 mi SE 4.6 mph - N/A   Overcast
5:16 AM 46.4 °F 44.3 °F 44.6 °F 93% 30.04 in 0.2 mi SE 4.6 mph - N/A   Overcast
5:36 AM 46.4 °F 45.2 °F 44.6 °F 93% 30.05 in 0.2 mi SE 3.5 mph - N/A   Overcast
5:56 AM 46.4 °F 44.3 °F 44.6 °F 93% 30.05 in 0.2 mi ESE 4.6 mph - N/A   Unknown
6:16 AM 48.2 °F - 44.6 °F 87% 30.06 in 0.2 mi SE 3.5 mph - N/A   Unknown
6:36 AM 48.2 °F - 44.6 °F 87% 30.06 in 0.2 mi Calm Calm - N/A   Unknown
6:56 AM 48.2 °F - 44.6 °F 87% 30.06 in 0.2 mi ESE 3.5 mph - N/A   Unknown
7:36 AM 48.2 °F - 46.4 °F 93% 30.06 in 0.2 mi SE 5.8 mph - N/A   Unknown
7:56 AM 48.2 °F - 46.4 °F 93% 30.06 in 0.2 mi SE 4.6 mph - N/A   Unknown
8:16 AM 48.2 °F - 46.4 °F 93% 30.06 in 0.2 mi SE 4.6 mph - N/A   Unknown
8:36 AM 48.2 °F - 46.4 °F 93% 30.06 in 0.2 mi South 3.5 mph - N/A   Unknown
8:56 AM 48.2 °F - 46.4 °F 93% 30.06 in 0.5 mi SE 3.5 mph - N/A   Overcast
9:16 AM 50.0 °F - 48.2 °F 94% 30.06 in 0.5 mi ESE 4.6 mph - N/A   Overcast
9:36 AM 48.2 °F - 46.4 °F 93% 30.06 in 0.5 mi ENE 3.5 mph - N/A   Overcast
9:56 AM 48.2 °F - 46.4 °F 93% 30.06 in 0.5 mi ENE 4.6 mph - N/A   Overcast
10:16 AM 50.0 °F - 46.4 °F 87% 30.07 in 0.5 mi East 3.5 mph - N/A   Overcast
10:36 AM 51.8 °F - 46.4 °F 82% 30.06 in 0.5 mi East 4.6 mph - N/A   Overcast
10:56 AM 50.0 °F - 46.4 °F 87% 30.06 in 1.5 mi North 3.5 mph - N/A   Mostly Cloudy
11:16 AM 50.0 °F - 46.4 °F 87% 30.07 in 1.5 mi North 3.5 mph - N/A   Mostly Cloudy
11:36 AM 50.0 °F - 46.4 °F 87% 30.06 in 1.5 mi North 4.6 mph - N/A   Mostly Cloudy
11:56 AM 50.0 °F - 46.4 °F 87% 30.07 in 1.5 mi North 3.5 mph - N/A   Mostly Cloudy
12:16 PM 53.6 °F - 48.2 °F 82% 30.06 in 10.0 mi North 3.5 mph - N/A   Partly Cloudy
12:36 PM 55.4 °F - 48.2 °F 77% 30.06 in 10.0 mi North 3.5 mph - N/A   Partly Cloudy
12:56 PM 57.2 °F - 48.2 °F 72% 30.06 in 10.0 mi North 3.5 mph - N/A   Partly Cloudy
1:16 PM 57.2 °F - 48.2 °F 72% 30.05 in 10.0 mi NNW 5.8 mph - N/A   Partly Cloudy
1:36 PM 57.2 °F - 48.2 °F 72% 30.05 in 10.0 mi NNW 5.8 mph - N/A   Partly Cloudy
1:56 PM 59.0 °F - 48.2 °F 67% 30.05 in 10.0 mi NW 5.8 mph - N/A   Partly Cloudy
2:16 PM 59.0 °F - 48.2 °F 67% 30.05 in 10.0 mi NW 5.8 mph - N/A   Partly Cloudy
2:36 PM 59.0 °F - 48.2 °F 67% 30.05 in 10.0 mi NW 6.9 mph - N/A   Partly Cloudy
2:56 PM 59.0 °F - 48.2 °F 67% 30.05 in 10.0 mi NW 6.9 mph - N/A   Partly Cloudy
3:16 PM 59.0 °F - 48.2 °F 67% 30.04 in 10.0 mi NNW 6.9 mph - N/A   Partly Cloudy
3:36 PM 59.0 °F - 48.2 °F 67% 30.04 in 10.0 mi NW 5.8 mph - N/A   Partly Cloudy
3:56 PM 59.0 °F - 50.0 °F 72% 30.04 in 10.0 mi NW 6.9 mph - N/A   Partly Cloudy
4:16 PM 60.8 °F - 51.8 °F 72% 30.04 in 10.0 mi NW 5.8 mph - N/A   Partly Cloudy
4:36 PM 62.6 °F - 50.0 °F 63% 30.04 in 10.0 mi West 4.6 mph - N/A   Partly Cloudy
4:56 PM 62.6 °F - 48.2 °F 59% 30.04 in 10.0 mi West 4.6 mph - N/A   Partly Cloudy
5:16 PM 64.4 °F - 48.2 °F 56% 30.04 in 10.0 mi NW 4.6 mph - N/A   Partly Cloudy
5:36 PM 62.6 °F - 50.0 °F 63% 30.04 in 10.0 mi West 4.6 mph - N/A   Partly Cloudy
5:56 PM 60.8 °F - 51.8 °F 72% 30.04 in 10.0 mi Calm Calm - N/A   Partly Cloudy
6:16 PM 57.2 °F - 50.0 °F 77% 30.04 in 10.0 mi ESE 3.5 mph - N/A   Partly Cloudy
6:36 PM 57.2 °F - 50.0 °F 77% 30.03 in 10.0 mi Calm Calm - N/A   Partly Cloudy
6:56 PM 57.2 °F - 50.0 °F 77% 30.04 in 10.0 mi Calm Calm - N/A   Partly Cloudy
7:16 PM 55.4 °F - 48.2 °F 77% 30.04 in 10.0 mi ESE 3.5 mph - N/A   Partly Cloudy
7:36 PM 53.6 °F - 48.2 °F 82% 30.04 in 10.0 mi Calm Calm - N/A   Partly Cloudy
7:56 PM 55.4 °F - 48.2 °F 77% 30.04 in 10.0 mi SW 3.5 mph - N/A   Clear
8:16 PM 53.6 °F - 48.2 °F 82% 30.04 in 10.0 mi Calm Calm - N/A   Clear
8:36 PM 53.6 °F - 48.2 °F 82% 30.05 in 10.0 mi Calm Calm - N/A   Clear
8:56 PM 53.6 °F - 48.2 °F 82% 30.05 in 10.0 mi Calm Calm - N/A   Clear
9:16 PM 51.8 °F - 46.4 °F 82% 30.05 in 10.0 mi SSE 5.8 mph - N/A   Clear
9:36 PM 51.8 °F - 46.4 °F 82% 30.05 in 10.0 mi SSE 4.6 mph - N/A   Clear
9:56 PM 51.8 °F - 46.4 °F 82% 30.05 in 10.0 mi SE 4.6 mph - N/A   Clear
10:16 PM 51.8 °F - 48.2 °F 88% 30.05 in 10.0 mi SSE 5.8 mph - N/A   Clear
10:36 PM 51.8 °F - 46.4 °F 82% 30.06 in 10.0 mi Calm Calm - N/A   Clear
10:56 PM 51.8 °F - 46.4 °F 82% 30.06 in 10.0 mi SSE 4.6 mph - N/A   Clear
11:16 PM 50.0 °F - 46.4 °F 87% 30.06 in 10.0 mi SE 5.8 mph - N/A   Clear
11:36 PM 50.0 °F - 46.4 °F 87% 30.06 in 10.0 mi SSE 3.5 mph - N/A   Clear
11:56 PM 48.2 °F - 44.6 °F 87% 30.06 in 10.0 mi SE 4.6 mph - N/A   Clear